Location: Allaines
(49.9632°N, 2.9458°E)
Time: 17:24:34
(UTC+00:00)

Okean 3 Rocket - Pass Details

Date: 09 April 2020
Orbit: 616 x 644 km, 82.5° (Epoch: 04 June)

Event Time Altitude Azimuth Distance (km) Brightness Sun altitude
Rises 20:47:26 0° 353° (N) 2,915 7.8 -19.9°
Reaches altitude 10° 20:49:42 10° 357° (N) 2,008 6.8 -20.1°
Maximum altitude 20:54:05 56° 77° (ENE) 751 3.7 -20.7°
Enters shadow 20:54:37 52° 106° (ESE) 785 3.7 -20.7°
